Theta_e
339 340 341 343 344 344 348 350 352 354 359 363 365 363 363 362 365 353 352 360 353 350 349 352 371 366 364 366 367 364 369 361 360
333 339 341 342 344 345 348 350 354 355 359 363 365 360 365 366 363 359 353 363 366 357 362 354 357 361 364 363 363 367 371 360 366
332 338 341 343 344 345 346 348 351 355 358 363 362 362 364 363 363 364 364 366 369 363 365 367 361 362 361 363 366 366 373 365 368
332 338 339 342 344 347 347 348 349 351 354 359 360 362 364 362 362 360 363 365 367 367 367 370 368 366 364 362 362 366 371 370 366
329 333 338 341 343 347 348 349 349 350 351 352 357 360 363 362 364 361 360 363 364 370 369 369 370 367 367 363 361 366 369 363 363
328 331 336 340 342 345 347 350 352 349 350 350 352 359 358 361 362 362 360 365 364 368 369 370 363 367 368 365 363 365 369 369 366
326 332 335 336 339 343 347 351 356 356 351 351 351 353 354 358 360 362 361 364 367 367 369 369 369 370 369 367 364 364 363 365 366
326 327 330 333 335 343 354 356 359 358 353 356 354 356 354 357 363 363 364 363 367 367 369 369 371 370 369 369 363 357 363 364 365
327 330 328 331 338 342 345 351 359 359 359 357 356 358 355 359 364 364 364 364 366 369 369 370 371 369 370 368 358 342 338 354 360
327 329 332 335 337 340 344 348 355 357 360 359 359 361 360 361 363 363 364 365 366 367 368 371 371 370 370 369 369 336 333 338 356
329 331 333 335 336 339 343 345 349 354 357 362 362 360 365 363 365 365 367 367 366 368 370 369 369 370 371 371 369 336 329 334 360
330 334 337 339 341 342 344 344 347 352 354 362 362 364 362 365 365 366 367 366 368 369 370 369 369 370 371 371 370 332 329 335 359
329 332 335 339 343 346 346 348 348 346 350 355 360 364 364 367 368 369 368 369 369 371 371 369 364 367 371 359 372 336 326 335 357
326 329 331 331 340 350 353 353 350 350 351 354 361 364 366 369 370 370 371 372 372 372 370 366 370 369 370 371 366 367 324 322 360
320 324 327 328 331 342 358 356 355 357 354 361 366 366 365 368 371 366 367 372 372 372 371 369 371 369 368 365 373 341 325 320 326
316 319 324 324 324 330 335 352 356 359 361 369 367 367 366 368 369 369 370 370 370 365 368 361 361 359 357 357 359 365 327 319 320
314 318 320 321 321 323 324 330 341 349 364 369 369 367 368 368 367 366 368 364 365 361 359 359 358 358 357 355 355 355 361 352 337
316 318 320 319 318 319 321 323 327 332 342 356 360 365 363 365 361 361 364 364 362 360 363 351 356 353 353 352 355 356 346 349 362
315 317 318 319 318 318 320 321 323 325 329 334 355 356 358 357 358 359 359 360 356 311 319 309 311 309 332 355 320 316 310 310 314
315 317 317 317 318 319 320 320 320 322 325 329 343 357 358 358 352 358 360 359 358 355 329 309 307 310 309 310 307 310 308 310 308
Wind_Speed
26 26 24 25 27 26 25 25 24 23 23 22 21 20 19 17 15 12 12 10 10 9 8 8 10 10 9 9 10 9 7 8 8
17 28 25 26 25 25 25 24 25 24 22 23 22 23 18 17 16 16 14 12 12 9 9 7 8 10 11 10 10 9 8 7 9
24 25 24 23 24 25 24 26 24 24 23 23 21 22 19 18 18 17 14 13 12 13 10 9 6 10 10 11 10 9 8 8 9
17 20 21 21 22 24 25 24 24 25 24 22 22 21 20 20 18 19 17 13 13 12 11 9 10 9 10 11 11 10 9 10 6
22 19 19 21 20 23 23 24 24 25 25 26 24 22 20 20 19 19 19 17 16 13 13 12 11 11 11 11 11 11 11 12 11
21 22 20 16 18 20 22 24 22 24 25 26 25 22 23 21 21 20 19 19 17 16 14 13 15 13 12 12 12 11 12 12 12
21 20 21 20 21 20 21 21 21 21 24 24 24 24 24 23 22 21 20 17 18 17 16 15 15 14 13 13 13 13 13 13 13
8 5 9 19 17 16 17 17 19 19 21 20 22 21 22 22 21 20 18 19 18 17 17 16 15 15 14 14 14 13 14 13 13
4 7 5 9 10 12 15 18 18 19 19 20 21 20 22 19 20 20 20 19 19 17 17 16 16 16 15 15 14 15 15 14 13
5 8 8 6 9 9 14 18 17 19 20 18 19 18 20 19 19 20 20 19 19 19 18 16 16 16 16 16 16 13 15 17 14
8 9 9 9 9 10 11 12 18 19 20 20 19 20 18 20 19 20 19 19 20 19 17 17 16 16 16 16 15 14 14 15 14
7 10 12 11 11 12 11 13 14 16 18 20 19 19 21 21 21 20 19 20 19 17 16 16 16 16 17 17 16 16 16 14 14
9 10 11 12 13 13 13 14 15 17 20 19 22 21 22 18 18 18 20 19 19 17 15 16 15 16 16 17 16 14 17 17 13
11 11 12 14 16 13 15 16 17 17 17 21 19 17 17 17 18 18 17 16 15 16 16 15 15 15 15 16 17 15 18 19 15
13 13 12 13 13 15 15 14 15 16 18 13 15 17 17 17 18 16 15 17 15 16 15 14 13 14 13 14 14 15 16 19 21
11 12 12 12 13 14 16 20 8 13 13 13 14 15 16 16 16 16 14 16 16 14 14 14 14 14 14 13 13 13 18 20 22
10 10 12 13 13 14 16 18 18 18 3 10 12 14 14 14 16 16 15 15 14 14 14 14 13 14 13 13 12 12 12 14 12
11 10 11 12 13 13 14 15 16 18 17 9 13 13 14 15 14 16 15 14 14 14 14 12 14 13 13 12 12 13 12 11 12
8 10 10 10 11 13 14 14 15 17 18 16 9 10 13 14 14 15 14 14 9 11 9 10 11 11 6 4 13 14 6 13 14
6 7 9 10 11 11 12 13 15 16 16 15 13 6 10 12 14 14 13 13 13 12 5 5 7 9 10 9 6 11 11 9 9
Wind_Direction
190 189 188 190 193 193 193 196 191 194 186 190 192 196 194 197 200 205 221 207 209 223 224 213 145 180 207 216 186 204 186 194 219
219 183 189 189 192 195 194 196 194 193 191 189 194 196 194 192 199 210 202 216 212 221 220 233 199 190 197 216 216 207 182 234 201
181 202 182 191 191 195 196 198 197 194 196 191 195 199 195 195 194 198 214 205 207 212 225 225 237 196 213 214 220 217 203 212 201
231 196 187 195 190 192 197 197 198 198 197 196 196 202 197 198 195 197 201 211 202 219 217 225 211 232 208 220 220 217 208 238 252
222 222 205 192 193 190 193 196 197 197 197 200 197 201 199 198 196 198 198 203 210 203 212 217 220 214 217 216 218 213 208 214 229
227 220 201 193 199 189 195 193 198 200 197 201 199 199 198 198 201 200 202 197 203 203 206 210 219 211 216 213 215 217 213 215 223
228 214 226 207 196 191 192 195 192 198 199 200 200 195 202 201 199 201 200 201 198 203 201 203 212 215 212 215 216 215 220 215 221
240 308 281 214 224 195 178 190 187 191 204 199 201 194 201 199 199 199 199 200 198 201 201 202 206 210 214 211 218 218 215 220 216
346 307 274 291 226 221 189 190 190 189 200 202 201 196 200 196 192 198 199 198 200 200 202 202 204 210 211 214 220 213 203 207 219
309 270 303 309 299 270 215 196 196 199 197 206 200 206 196 199 193 197 200 197 196 201 202 202 205 208 212 214 219 215 198 199 221
317 304 294 283 271 266 269 251 203 200 194 199 211 203 198 197 195 197 196 197 200 199 199 202 204 209 213 216 216 206 196 198 217
316 302 293 281 275 272 272 267 262 202 200 191 208 204 206 196 198 193 196 199 198 199 201 202 206 208 212 215 221 198 194 187 219
324 317 306 299 287 281 266 245 249 251 197 199 201 211 202 199 197 198 200 200 198 197 200 205 208 211 209 214 220 199 197 191 222
340 327 321 343 310 282 255 242 228 232 239 201 202 203 200 196 199 200 198 197 199 200 202 207 207 212 212 214 212 216 191 191 217
356 342 336 349 343 333 320 261 225 218 232 221 186 190 200 194 195 198 192 195 195 200 200 207 204 211 213 216 218 209 192 192 207
352 351 352 360 354 350 355 349 292 211 221 212 179 184 192 195 191 193 196 189 194 195 198 208 211 206 218 223 212 216 201 192 201
347 1 8 8 359 4 6 2 5 3 232 172 173 185 190 194 187 189 202 186 194 202 202 206 209 214 212 218 223 223 205 203 204
352 356 10 14 7 6 13 3 2 3 0 319 191 192 194 192 192 191 194 194 195 196 207 205 211 209 212 216 218 221 222 212 188
343 6 7 12 7 5 6 8 2 2 358 354 302 194 200 194 193 184 190 195 171 54 98 109 93 76 62 56 55 28 11 126 117
342 5 15 8 6 5 9 9 4 3 351 350 350 234 221 198 209 179 191 194 185 186 109 133 159 142 133 110 67 34 30 64 80